Location: Pouilly
(47.2624°N, 4.5558°E)
Time: 21:52:51
(UTC+00:00)

ERS-2 - Pass Details

Date: 07 June 2020
Orbit: 493 x 499 km, 98.5° (Epoch: 08 July)

Event Time Altitude Azimuth Distance (km) Brightness Sun altitude
Rises 02:50:14 0° 170° (S) 2,579 5.4 -8.0°
Reaches altitude 10° 02:52:19 10° 173° (S) 1,700 4.5 -7.8°
Maximum altitude 02:55:58 67° 257° (WSW) 545 2.1 -7.3°
Drops below altitude 10° 02:59:38 10° 341° (NNW) 1,714 5.2 -6.9°
Sets 03:01:44 0° 344° (NNW) 2,602 6.2 -6.6°
